Pilot No. 4 — WDA5463 — position and weather

sailwx.info

Track history (hours):
 
Tides and Currents Weather Stations Pressure Air Temp Water Temp Dewpoint Dewpoint Depression Visibility Wind Speed Wind Dir Waves Ship Positions

Pilot No. 4

Owner: P E P Inc, FORT LAUDERDALE, FL. More information available from US FCC via Universal Licensing System and Coast Guard Vessel Documentation Center.

Last reported at 2014-Oct-30 15:33 UTC. Time now 2014-Oct-30 23:42 UTC.
Position N 26°06' W 080°07'.

MMSI: 495270931.

Date/timePositionNaut miles runAvg speedWind from/ knotsBaromVisibWave heightAir tempDewpointWater temp
2014-Oct-30 15:33N 26°06' W 080°07'0 0.4
2014-Oct-30 14:33N 26°05' W 080°07'0 0.0
2014-Oct-30 13:33N 26°05' W 080°07'0 0.4
2014-Oct-30 12:33N 26°06' W 080°07'0 0.2
2014-Oct-30 11:33N 26°06' W 080°07'1 0.6
2014-Oct-30 10:33N 26°06' W 080°07'1 1.0
2014-Oct-30 09:33N 26°05' W 080°07'1 1.0
2014-Oct-30 08:33N 26°06' W 080°07'2 1.9
2014-Oct-30 07:33N 26°06' W 080°05'2 1.6
2014-Oct-30 06:33N 26°05' W 080°07'1 1.1
2014-Oct-30 05:33N 26°06' W 080°06'1 0.9
2014-Oct-30 04:33N 26°05' W 080°07'1 0.8
2014-Oct-30 03:15N 26°06' W 080°07'1 1.0
2014-Oct-30 02:34N 26°05' W 080°07'2 2.4
2014-Oct-30 01:33N 26°05' W 080°05'2 2.3
2014-Oct-30 00:34N 26°05' W 080°07'3 2.6
2014-Oct-29 23:34N 26°06' W 080°04'1 1.3
2014-Oct-29 22:33N 26°06' W 080°06'1 1.1
2014-Oct-29 21:33N 26°05' W 080°07'0 0.4
2014-Oct-29 20:33N 26°06' W 080°07'0 0.3
2014-Oct-29 19:33N 26°06' W 080°07'2 1.7
2014-Oct-29 18:33N 26°06' W 080°05'2 1.5
2014-Oct-29 17:33N 26°06' W 080°07'0 0.4
2014-Oct-29 16:33N 26°05' W 080°07'1 1.3
2014-Oct-29 15:33N 26°06' W 080°05'1 0.9
2014-Oct-29 14:33N 26°06' W 080°06'1 0.7
2014-Oct-29 13:33N 26°05' W 080°07'0 0.3
2014-Oct-29 12:33N 26°06' W 080°07'0 0.1
2014-Oct-29 11:34N 26°05' W 080°07'1 0.5
2014-Oct-29 10:17N 26°06' W 080°07'2 2.4
2014-Oct-29 09:33N 26°06' W 080°05'2 0.9
2014-Oct-29 07:33N 26°06' W 080°03'3 0.6
2014-Oct-29 01:34N 26°06' W 080°07'0 0.1
2014-Oct-29 00:33N 26°06' W 080°07'0 0.1
2014-Oct-28 23:33N 26°06' W 080°07'0 0.4
2014-Oct-28 22:27N 26°06' W 080°07'1 0.8
2014-Oct-28 21:33N 26°06' W 080°07'0 0.1
2014-Oct-28 20:33N 26°05' W 080°07'0 0.3
2014-Oct-28 19:33N 26°06' W 080°07'1 0.6
2014-Oct-28 18:33N 26°06' W 080°07'0 0.0
2014-Oct-28 14:04N 26°06' W 080°07'3 5.3
2014-Oct-28 13:34N 26°06' W 080°04'3 2.5
2014-Oct-28 12:33N 26°06' W 080°07'1 0.5
2014-Oct-28 11:33N 26°06' W 080°07'1 0.9
2014-Oct-28 10:34N 26°05' W 080°07'0 0.5
2014-Oct-28 09:34N 26°06' W 080°07'0 0.4
2014-Oct-28 08:33N 26°05' W 080°07'1 0.2
2014-Oct-28 04:20N 26°06' W 080°07'1 1.1
2014-Oct-28 03:33N 26°05' W 080°07'1 1.4
2014-Oct-28 02:33N 26°06' W 080°06'1 1.5
2014-Oct-28 01:33N 26°06' W 080°07'1 0.5
2014-Oct-28 00:33N 26°06' W 080°07'1 0.7
2014-Oct-27 23:34N 26°06' W 080°07'0 0.2
2014-Oct-27 22:34N 26°05' W 080°07'0 0.5
2014-Oct-27 21:33N 26°06' W 080°07'0 0.4
2014-Oct-27 20:33N 26°06' W 080°07'1 0.4
2014-Oct-27 18:33N 26°06' W 080°07'0 0.0
2014-Oct-27 17:33N 26°06' W 080°07'0 0.0
2014-Oct-27 16:31N 26°06' W 080°07'0 0.0
2014-Oct-27 15:33N 26°06' W 080°07'0 0.0
2014-Oct-27 14:33N 26°06' W 080°07'2 2.1
2014-Oct-27 13:33N 26°04' W 080°07'2 2.1
2014-Oct-27 12:34N 26°06' W 080°07'3 2.8
2014-Oct-27 11:34N 26°05' W 080°04'3 2.8
2014-Oct-27 10:33N 26°05' W 080°07'0 0.4
2014-Oct-27 09:33N 26°05' W 080°07'1 0.7
2014-Oct-27 08:15N 26°06' W 080°07'1 1.0
2014-Oct-27 07:34N 26°06' W 080°07'0 0.0
2014-Oct-27 06:33N 26°06' W 080°07'1 0.8
2014-Oct-27 05:29N 26°06' W 080°07'1 0.8
2014-Oct-27 04:33N 26°06' W 080°07'1 0.7
2014-Oct-27 02:33N 26°06' W 080°05'1 0.7
2014-Oct-27 01:33N 26°06' W 080°06'1 0.9
2014-Oct-27 00:33N 26°06' W 080°07'2 1.6
2014-Oct-26 23:33N 26°05' W 080°05'1 1.1
2014-Oct-26 22:33N 26°06' W 080°07'1 1.3
2014-Oct-26 21:34N 26°06' W 080°05'0 0.1
2014-Oct-26 20:33N 26°05' W 080°05'2 2.1
2014-Oct-26 19:33N 26°06' W 080°07'1 0.6
2014-Oct-26 18:33N 26°06' W 080°07'1 1.3
2014-Oct-26 17:34N 26°04' W 080°07'2 2.4
2014-Oct-26 16:34N 26°05' W 080°05'2 0.7
2014-Oct-26 13:33N 26°05' W 080°07'1 0.6
2014-Oct-26 12:33N 26°06' W 080°07'0 0.2
2014-Oct-26 11:33N 26°06' W 080°07'1 0.8
2014-Oct-26 10:33N 26°06' W 080°06'1 0.6
2014-Oct-26 09:33N 26°05' W 080°07'0 0.1
2014-Oct-26 08:34N 26°05' W 080°07'1 0.5
2014-Oct-26 07:33N 26°06' W 080°07'0 0.1
2014-Oct-26 03:33N 26°06' W 080°06'1 1.2
2014-Oct-26 02:33N 26°06' W 080°07'0 0.2
2014-Oct-26 01:34N 26°06' W 080°07'0 0.3
2014-Oct-26 00:33N 26°06' W 080°07'0 0.5
2014-Oct-25 23:33N 26°05' W 080°07'0 0.1
2014-Oct-25 22:33N 26°05' W 080°07'0 0.2
2014-Oct-25 21:34N 26°05' W 080°07'0 0.4
2014-Oct-25 20:33N 26°06' W 080°07'1 0.6
2014-Oct-25 19:33N 26°06' W 080°07'2 1.7
2014-Oct-25 18:33N 26°04' W 080°07'2 1.8
2014-Oct-25 17:34N 26°06' W 080°06'1 1.5
2014-Oct-25 16:34N 26°05' W 080°07'2 1.6
2014-Oct-25 15:34N 26°06' W 080°07'1 0.7
2014-Oct-25 14:34N 26°05' W 080°07'4 3.6
2014-Oct-25 13:34N 26°05' W 080°03'4 3.8
2014-Oct-25 12:34N 26°06' W 080°07'0 0.3
2014-Oct-25 11:33N 26°06' W 080°07'0 0.5
2014-Oct-25 10:33N 26°06' W 080°07'5 4.8
2014-Oct-25 09:33N 26°06' W 080°02'5 3.7
2014-Oct-25 08:19N 26°06' W 080°07'2 2.2
2014-Oct-25 07:33N 26°06' W 080°05'2 0.8
2014-Oct-25 05:26N 26°06' W 080°07'0 0.4
2014-Oct-25 04:33N 26°05' W 080°07'0 0.3
2014-Oct-25 03:33N 26°06' W 080°07'1 1.2
2014-Oct-25 02:33N 26°06' W 080°06'1 1.1
2014-Oct-25 01:33N 26°05' W 080°07'1 0.5
2014-Oct-25 00:33N 26°06' W 080°06'1 1.0
2014-Oct-24 23:33N 26°06' W 080°07'1 0.7
2014-Oct-24 22:33N 26°06' W 080°07'0 0.5
2014-Oct-24 21:33N 26°06' W 080°07'2 1.5
2014-Oct-24 20:34N 26°06' W 080°06'1 0.5
2014-Oct-24 18:33N 26°06' W 080°05'3 2.6
2014-Oct-24 17:34N 26°06' W 080°07'4 3.9
2014-Oct-24 16:33N 26°06' W 080°03'4 3.9
2014-Oct-24 15:33N 26°06' W 080°07'0 0.0
2014-Oct-24 14:33N 26°06' W 080°07'0 0.0
2014-Oct-24 13:33N 26°06' W 080°07'1 1.0
2014-Oct-24 12:33N 26°06' W 080°07'1 0.2
2014-Oct-24 08:05N 26°06' W 080°07'2 4.5
2014-Oct-24 07:33N 26°06' W 080°05'2 2.1
2014-Oct-24 06:33N 26°06' W 080°07'1 1.0
2014-Oct-24 05:34N 26°05' W 080°07'1 1.1
2014-Oct-24 04:33N 26°06' W 080°06'1 0.2
2014-Oct-23 23:12N 26°06' W 080°07'1 2.0
2014-Oct-23 22:33N 26°06' W 080°06'0 0.4
2014-Oct-23 21:34N 26°06' W 080°06'1 0.9
2014-Oct-23 20:33N 26°06' W 080°07'3 3.3
2014-Oct-23 19:33N 26°07' W 080°03'4 3.7
2014-Oct-23 18:33N 26°05' W 080°07'1 1.0
2014-Oct-23 17:33N 26°06' W 080°06'1 1.1
2014-Oct-23 16:33N 26°06' W 080°07'0 0.5
2014-Oct-23 15:33N 26°05' W 080°07'2 1.9
2014-Oct-23 14:33N 26°06' W 080°05'2 1.7
2014-Oct-23 13:33N 26°06' W 080°07'0 0.3
2014-Oct-23 12:34N 26°06' W 080°07'4 2.0
2014-Oct-23 10:33N 26°05' W 080°02'2 2.2
2014-Oct-23 09:33N 26°05' W 080°05'0 0.3
2014-Oct-23 08:33N 26°05' W 080°04'2 2.0
2014-Oct-23 07:20N 26°06' W 080°07'0 0.6
2014-Oct-23 06:33N 26°05' W 080°07'1 0.6
2014-Oct-23 05:25N 26°06' W 080°07'1 1.4
2014-Oct-23 04:33N 26°05' W 080°07'0 0.1
2014-Oct-23 03:33N 26°05' W 080°07'1 0.8
2014-Oct-23 02:07N 26°06' W 080°07'1 0.9
2014-Oct-23 01:33N 26°06' W 080°07'1 0.5
2014-Oct-23 00:33N 26°06' W 080°07'1 1.2
2014-Oct-22 23:34N 26°06' W 080°06'1 1.2
2014-Oct-22 22:33N 26°06' W 080°07'2 1.6
2014-Oct-22 21:33N 26°06' W 080°06'1 1.2
2014-Oct-22 20:33N 26°06' W 080°07'1 0.6
2014-Oct-22 19:26N 26°06' W 080°07'1 1.3
2014-Oct-22 18:33N 26°06' W 080°06'1 0.8
2014-Oct-22 17:33N 26°05' W 080°07'0 0.0
2014-Oct-22 16:33N 26°05' W 080°07'2 0.9
2014-Oct-22 14:34N 26°06' W 080°05'2 2.1
2014-Oct-22 13:33N 26°04' W 080°07'1 0.9
2014-Oct-22 12:33N 26°05' W 080°07'2 2.4
2014-Oct-22 11:33N 26°06' W 080°04'3 2.8
2014-Oct-22 10:34N 26°06' W 080°07'1 1.1
2014-Oct-22 09:33N 26°05' W 080°07'1 0.8
2014-Oct-22 08:33N 26°06' W 080°07'0 0.0
2014-Oct-22 01:34N 26°06' W 080°07'0 0.3
2014-Oct-22 00:33N 26°06' W 080°07'3 2.9
2014-Oct-21 23:33N 26°05' W 080°04'2 2.4
2014-Oct-21 22:34N 26°06' W 080°06'1 0.2
2014-Oct-21 17:06N 26°06' W 080°07'1 2.7
2014-Oct-21 16:34N 26°06' W 080°06'1 0.3
2014-Oct-21 12:20N 26°06' W 080°07'2 2.2
2014-Oct-21 11:34N 26°06' W 080°06'2 1.7
2014-Oct-21 10:33N 26°06' W 080°07'1 1.1
2014-Oct-21 09:33N 26°05' W 080°07'1 1.1
2014-Oct-21 08:33N 26°06' W 080°07'0 0.0
2014-Oct-21 07:33N 26°06' W 080°07'0 0.0
2014-Oct-21 06:33N 26°06' W 080°07'0 0.0
2014-Oct-21 05:33N 26°06' W 080°07'1 0.6
2014-Oct-21 04:33N 26°06' W 080°07'0 0.4
2014-Oct-21 03:34N 26°06' W 080°07'1 0.8
2014-Oct-21 02:33N 26°06' W 080°07'0 0.0
2014-Oct-21 01:32N 26°06' W 080°07'0 0.0
2014-Oct-21 00:33N 26°06' W 080°07'0 0.0
2014-Oct-20 23:33N 26°06' W 080°07'0 0.0
2014-Oct-20 22:33N 26°06' W 080°07'0 0.0
2014-Oct-20 21:33N 26°06' W 080°07'0 0.0
2014-Oct-20 20:33N 26°06' W 080°07'1 1.0
2014-Oct-20 19:33N 26°06' W 080°06'1 0.7
2014-Oct-20 18:33N 26°06' W 080°07'1 1.3
2014-Oct-20 17:33N 26°06' W 080°06'1 0.6
2014-Oct-20 15:34N 26°06' W 080°07'  
Track history (hours):
 
Tides and Currents Weather Stations Pressure Air Temp Water Temp Dewpoint Dewpoint Depression Visibility Wind Speed Wind Dir Waves Ship Positions

Pilot No. 4

Owner: P E P Inc, FORT LAUDERDALE, FL. More information available from US FCC via Universal Licensing System and Coast Guard Vessel Documentation Center.

Last reported at 2014-Oct-30 15:33 UTC. Time now 2014-Oct-30 23:42 UTC.
Position N 26°06' W 080°07'.

MMSI: 495270931.

Date/timePositionNaut miles runAvg speedWind from/ knotsBaromVisibWave heightAir tempDewpointWater temp
2014-Oct-30 15:33N 26°06' W 080°07'0 0.4
2014-Oct-30 14:33N 26°05' W 080°07'0 0.0
2014-Oct-30 13:33N 26°05' W 080°07'0 0.4
2014-Oct-30 12:33N 26°06' W 080°07'0 0.2
2014-Oct-30 11:33N 26°06' W 080°07'1 0.6
2014-Oct-30 10:33N 26°06' W 080°07'1 1.0
2014-Oct-30 09:33N 26°05' W 080°07'1 1.0
2014-Oct-30 08:33N 26°06' W 080°07'2 1.9
2014-Oct-30 07:33N 26°06' W 080°05'2 1.6
2014-Oct-30 06:33N 26°05' W 080°07'1 1.1
2014-Oct-30 05:33N 26°06' W 080°06'1 0.9
2014-Oct-30 04:33N 26°05' W 080°07'1 0.8
2014-Oct-30 03:15N 26°06' W 080°07'1 1.0
2014-Oct-30 02:34N 26°05' W 080°07'2 2.4
2014-Oct-30 01:33N 26°05' W 080°05'2 2.3
2014-Oct-30 00:34N 26°05' W 080°07'3 2.6
2014-Oct-29 23:34N 26°06' W 080°04'1 1.3
2014-Oct-29 22:33N 26°06' W 080°06'1 1.1
2014-Oct-29 21:33N 26°05' W 080°07'0 0.4
2014-Oct-29 20:33N 26°06' W 080°07'0 0.3
2014-Oct-29 19:33N 26°06' W 080°07'2 1.7
2014-Oct-29 18:33N 26°06' W 080°05'2 1.5
2014-Oct-29 17:33N 26°06' W 080°07'0 0.4
2014-Oct-29 16:33N 26°05' W 080°07'1 1.3
2014-Oct-29 15:33N 26°06' W 080°05'1 0.9
2014-Oct-29 14:33N 26°06' W 080°06'1 0.7
2014-Oct-29 13:33N 26°05' W 080°07'0 0.3
2014-Oct-29 12:33N 26°06' W 080°07'0 0.1
2014-Oct-29 11:34N 26°05' W 080°07'1 0.5
2014-Oct-29 10:17N 26°06' W 080°07'2 2.4
2014-Oct-29 09:33N 26°06' W 080°05'2 0.9
2014-Oct-29 07:33N 26°06' W 080°03'3 0.6
2014-Oct-29 01:34N 26°06' W 080°07'0 0.1
2014-Oct-29 00:33N 26°06' W 080°07'0 0.1
2014-Oct-28 23:33N 26°06' W 080°07'0 0.4
2014-Oct-28 22:27N 26°06' W 080°07'1 0.8
2014-Oct-28 21:33N 26°06' W 080°07'0 0.1
2014-Oct-28 20:33N 26°05' W 080°07'0 0.3
2014-Oct-28 19:33N 26°06' W 080°07'1 0.6
2014-Oct-28 18:33N 26°06' W 080°07'0 0.0
2014-Oct-28 14:04N 26°06' W 080°07'3 5.3
2014-Oct-28 13:34N 26°06' W 080°04'3 2.5
2014-Oct-28 12:33N 26°06' W 080°07'1 0.5
2014-Oct-28 11:33N 26°06' W 080°07'1 0.9
2014-Oct-28 10:34N 26°05' W 080°07'0 0.5
2014-Oct-28 09:34N 26°06' W 080°07'0 0.4
2014-Oct-28 08:33N 26°05' W 080°07'1 0.2
2014-Oct-28 04:20N 26°06' W 080°07'1 1.1
2014-Oct-28 03:33N 26°05' W 080°07'1 1.4
2014-Oct-28 02:33N 26°06' W 080°06'1 1.5
2014-Oct-28 01:33N 26°06' W 080°07'1 0.5
2014-Oct-28 00:33N 26°06' W 080°07'1 0.7
2014-Oct-27 23:34N 26°06' W 080°07'0 0.2
2014-Oct-27 22:34N 26°05' W 080°07'0 0.5
2014-Oct-27 21:33N 26°06' W 080°07'0 0.4
2014-Oct-27 20:33N 26°06' W 080°07'1 0.4
2014-Oct-27 18:33N 26°06' W 080°07'0 0.0
2014-Oct-27 17:33N 26°06' W 080°07'0 0.0
2014-Oct-27 16:31N 26°06' W 080°07'0 0.0
2014-Oct-27 15:33N 26°06' W 080°07'0 0.0
2014-Oct-27 14:33N 26°06' W 080°07'2 2.1
2014-Oct-27 13:33N 26°04' W 080°07'2 2.1
2014-Oct-27 12:34N 26°06' W 080°07'3 2.8
2014-Oct-27 11:34N 26°05' W 080°04'3 2.8
2014-Oct-27 10:33N 26°05' W 080°07'0 0.4
2014-Oct-27 09:33N 26°05' W 080°07'1 0.7
2014-Oct-27 08:15N 26°06' W 080°07'1 1.0
2014-Oct-27 07:34N 26°06' W 080°07'0 0.0
2014-Oct-27 06:33N 26°06' W 080°07'1 0.8
2014-Oct-27 05:29N 26°06' W 080°07'1 0.8
2014-Oct-27 04:33N 26°06' W 080°07'1 0.7
2014-Oct-27 02:33N 26°06' W 080°05'1 0.7
2014-Oct-27 01:33N 26°06' W 080°06'1 0.9
2014-Oct-27 00:33N 26°06' W 080°07'2 1.6
2014-Oct-26 23:33N 26°05' W 080°05'1 1.1
2014-Oct-26 22:33N 26°06' W 080°07'1 1.3
2014-Oct-26 21:34N 26°06' W 080°05'0 0.1
2014-Oct-26 20:33N 26°05' W 080°05'2 2.1
2014-Oct-26 19:33N 26°06' W 080°07'1 0.6
2014-Oct-26 18:33N 26°06' W 080°07'1 1.3
2014-Oct-26 17:34N 26°04' W 080°07'2 2.4
2014-Oct-26 16:34N 26°05' W 080°05'2 0.7
2014-Oct-26 13:33N 26°05' W 080°07'1 0.6
2014-Oct-26 12:33N 26°06' W 080°07'0 0.2
2014-Oct-26 11:33N 26°06' W 080°07'1 0.8
2014-Oct-26 10:33N 26°06' W 080°06'1 0.6
2014-Oct-26 09:33N 26°05' W 080°07'0 0.1
2014-Oct-26 08:34N 26°05' W 080°07'1 0.5
2014-Oct-26 07:33N 26°06' W 080°07'0 0.1
2014-Oct-26 03:33N 26°06' W 080°06'1 1.2
2014-Oct-26 02:33N 26°06' W 080°07'0 0.2
2014-Oct-26 01:34N 26°06' W 080°07'0 0.3
2014-Oct-26 00:33N 26°06' W 080°07'0 0.5
2014-Oct-25 23:33N 26°05' W 080°07'0 0.1
2014-Oct-25 22:33N 26°05' W 080°07'0 0.2
2014-Oct-25 21:34N 26°05' W 080°07'0 0.4
2014-Oct-25 20:33N 26°06' W 080°07'1 0.6
2014-Oct-25 19:33N 26°06' W 080°07'2 1.7
2014-Oct-25 18:33N 26°04' W 080°07'2 1.8
2014-Oct-25 17:34N 26°06' W 080°06'1 1.5
2014-Oct-25 16:34N 26°05' W 080°07'2 1.6
2014-Oct-25 15:34N 26°06' W 080°07'1 0.7
2014-Oct-25 14:34N 26°05' W 080°07'4 3.6
2014-Oct-25 13:34N 26°05' W 080°03'4 3.8
2014-Oct-25 12:34N 26°06' W 080°07'0 0.3
2014-Oct-25 11:33N 26°06' W 080°07'0 0.5
2014-Oct-25 10:33N 26°06' W 080°07'5 4.8
2014-Oct-25 09:33N 26°06' W 080°02'5 3.7
2014-Oct-25 08:19N 26°06' W 080°07'2 2.2
2014-Oct-25 07:33N 26°06' W 080°05'2 0.8
2014-Oct-25 05:26N 26°06' W 080°07'0 0.4
2014-Oct-25 04:33N 26°05' W 080°07'0 0.3
2014-Oct-25 03:33N 26°06' W 080°07'1 1.2
2014-Oct-25 02:33N 26°06' W 080°06'1 1.1
2014-Oct-25 01:33N 26°05' W 080°07'1 0.5
2014-Oct-25 00:33N 26°06' W 080°06'1 1.0
2014-Oct-24 23:33N 26°06' W 080°07'1 0.7
2014-Oct-24 22:33N 26°06' W 080°07'0 0.5
2014-Oct-24 21:33N 26°06' W 080°07'2 1.5
2014-Oct-24 20:34N 26°06' W 080°06'1 0.5
2014-Oct-24 18:33N 26°06' W 080°05'3 2.6
2014-Oct-24 17:34N 26°06' W 080°07'4 3.9
2014-Oct-24 16:33N 26°06' W 080°03'4 3.9
2014-Oct-24 15:33N 26°06' W 080°07'0 0.0
2014-Oct-24 14:33N 26°06' W 080°07'0 0.0
2014-Oct-24 13:33N 26°06' W 080°07'1 1.0
2014-Oct-24 12:33N 26°06' W 080°07'1 0.2
2014-Oct-24 08:05N 26°06' W 080°07'2 4.5
2014-Oct-24 07:33N 26°06' W 080°05'2 2.1
2014-Oct-24 06:33N 26°06' W 080°07'1 1.0
2014-Oct-24 05:34N 26°05' W 080°07'1 1.1
2014-Oct-24 04:33N 26°06' W 080°06'1 0.2
2014-Oct-23 23:12N 26°06' W 080°07'1 2.0
2014-Oct-23 22:33N 26°06' W 080°06'0 0.4
2014-Oct-23 21:34N 26°06' W 080°06'1 0.9
2014-Oct-23 20:33N 26°06' W 080°07'3 3.3
2014-Oct-23 19:33N 26°07' W 080°03'4 3.7
2014-Oct-23 18:33N 26°05' W 080°07'1 1.0
2014-Oct-23 17:33N 26°06' W 080°06'1 1.1
2014-Oct-23 16:33N 26°06' W 080°07'0 0.5
2014-Oct-23 15:33N 26°05' W 080°07'2 1.9
2014-Oct-23 14:33N 26°06' W 080°05'2 1.7
2014-Oct-23 13:33N 26°06' W 080°07'0 0.3
2014-Oct-23 12:34N 26°06' W 080°07'4 2.0
2014-Oct-23 10:33N 26°05' W 080°02'2 2.2
2014-Oct-23 09:33N 26°05' W 080°05'0 0.3
2014-Oct-23 08:33N 26°05' W 080°04'2 2.0
2014-Oct-23 07:20N 26°06' W 080°07'0 0.6
2014-Oct-23 06:33N 26°05' W 080°07'1 0.6
2014-Oct-23 05:25N 26°06' W 080°07'1 1.4
2014-Oct-23 04:33N 26°05' W 080°07'0 0.1
2014-Oct-23 03:33N 26°05' W 080°07'1 0.8
2014-Oct-23 02:07N 26°06' W 080°07'1 0.9
2014-Oct-23 01:33N 26°06' W 080°07'1 0.5
2014-Oct-23 00:33N 26°06' W 080°07'1 1.2
2014-Oct-22 23:34N 26°06' W 080°06'1 1.2
2014-Oct-22 22:33N 26°06' W 080°07'2 1.6
2014-Oct-22 21:33N 26°06' W 080°06'1 1.2
2014-Oct-22 20:33N 26°06' W 080°07'1 0.6
2014-Oct-22 19:26N 26°06' W 080°07'1 1.3
2014-Oct-22 18:33N 26°06' W 080°06'1 0.8
2014-Oct-22 17:33N 26°05' W 080°07'0 0.0
2014-Oct-22 16:33N 26°05' W 080°07'2 0.9
2014-Oct-22 14:34N 26°06' W 080°05'2 2.1
2014-Oct-22 13:33N 26°04' W 080°07'1 0.9
2014-Oct-22 12:33N 26°05' W 080°07'2 2.4
2014-Oct-22 11:33N 26°06' W 080°04'3 2.8
2014-Oct-22 10:34N 26°06' W 080°07'1 1.1
2014-Oct-22 09:33N 26°05' W 080°07'1 0.8
2014-Oct-22 08:33N 26°06' W 080°07'0 0.0
2014-Oct-22 01:34N 26°06' W 080°07'0 0.3
2014-Oct-22 00:33N 26°06' W 080°07'3 2.9
2014-Oct-21 23:33N 26°05' W 080°04'2 2.4
2014-Oct-21 22:34N 26°06' W 080°06'1 0.2
2014-Oct-21 17:06N 26°06' W 080°07'1 2.7
2014-Oct-21 16:34N 26°06' W 080°06'1 0.3
2014-Oct-21 12:20N 26°06' W 080°07'2 2.2
2014-Oct-21 11:34N 26°06' W 080°06'2 1.7
2014-Oct-21 10:33N 26°06' W 080°07'1 1.1
2014-Oct-21 09:33N 26°05' W 080°07'1 1.1
2014-Oct-21 08:33N 26°06' W 080°07'0 0.0
2014-Oct-21 07:33N 26°06' W 080°07'0 0.0
2014-Oct-21 06:33N 26°06' W 080°07'0 0.0
2014-Oct-21 05:33N 26°06' W 080°07'1 0.6
2014-Oct-21 04:33N 26°06' W 080°07'0 0.4
2014-Oct-21 03:34N 26°06' W 080°07'1 0.8
2014-Oct-21 02:33N 26°06' W 080°07'0 0.0
2014-Oct-21 01:32N 26°06' W 080°07'0 0.0
2014-Oct-21 00:33N 26°06' W 080°07'0 0.0
2014-Oct-20 23:33N 26°06' W 080°07'0 0.0
2014-Oct-20 22:33N 26°06' W 080°07'0 0.0
2014-Oct-20 21:33N 26°06' W 080°07'0 0.0
2014-Oct-20 20:33N 26°06' W 080°07'1 1.0
2014-Oct-20 19:33N 26°06' W 080°06'1 0.7
2014-Oct-20 18:33N 26°06' W 080°07'1 1.3
2014-Oct-20 17:33N 26°06' W 080°06'1 0.6
2014-Oct-20 15:34N 26°06' W 080°07'  

Dump ship's entire track history